Location: Bli��� Lhota
(48.7570°N, 14.0120°E)
Time: 06:11:08
(UTC+00:00)

KORONAS-FOTON - Pass Details

Date: 18 September 2020
Orbit: 505 x 532 km, 82.4° (Epoch: 27 October)

Event Time Altitude Azimuth Distance (km) Brightness Sun altitude
Rises 19:20:38 0° 348° (NNW) 2,688 8.0 -21.4°
Reaches altitude 10° 19:22:48 10° 346° (NNW) 1,794 7.1 -21.7°
Maximum altitude 19:26:43 69° 264° (W) 574 4.0 -22.3°
Enters shadow 19:27:21 57° 209° (SSW) 634 4.1 -22.4°
